Date,TemperatureHighF,TemperatureAvgF,TemperatureLowF,DewpointHighF,DewpointAvgF,DewpointLowF,HumidityHigh,HumidityAvg,HumidityLow,PressureMaxIn,PressureMinIn,WindSpeedMaxMPH,WindSpeedAvgMPH,GustSpeedMaxMPH,PrecipitationSumIn
2013-1-1,43,32,25,36,29,24,97,90,72,30.26,30.08,6,1,8,0.00
2013-1-2,42,30,24,38,28,23,96,94,84,30.23,29.95,3,1,4,0.00
2013-1-3,49,31,20,36,28,19,95,88,53,30.22,30.12,3,1,4,0.05
2013-1-4,54,44,38,46,40,37,95,88,70,30.38,30.19,13,3,17,0.02
2013-1-5,43,40,38,40,38,36,96,91,80,30.24,30.17,7,1,10,0.04
2013-1-6,47,41,36,40,38,34,95,87,77,30.24,30.02,11,3,15,0.06
2013-1-7,50,46,43,48,44,39,94,92,88,30.22,29.90,18,7,21,0.19
2013-1-8,52,47,42,49,45,41,96,93,88,30.22,29.81,24,7,24,0.45
2013-1-9,50,40,34,48,38,32,95,93,90,29.98,29.75,16,4,18,0.87
2013-1-10,38,34,31,34,33,30,96,94,86,30.15,29.97,4,1,7,0.05
2013-1-11,43,32,25,38,28,23,97,86,56,30.35,30.14,8,1,9,0.07
2013-1-12,42,28,20,35,24,19,94,86,60,30.42,30.31,6,1,8,0.00
2013-1-13,40,27,19,31,23,17,93,85,64,30.51,30.39,4,1,6,0.00
2013-1-14,34,28,20,31,26,18,95,91,86,30.55,30.44,4,0,5,0.01
2013-1-15,48,34,26,40,31,24,96,89,63,30.73,30.55,10,1,10,0.01
2013-1-16,36,29,25,34,27,23,96,95,92,30.67,30.52,4,1,6,0.00
2013-1-17,35,31,26,33,30,25,97,96,94,30.53,30.32,4,1,4,0.01
2013-1-18,50,35,28,40,32,28,98,92,65,30.37,30.27,8,2,8,0.00
2013-1-19,35,33,31,33,32,31,98,96,92,30.41,30.36,5,3,8,0.00
2013-1-20,36,33,31,34,32,30,98,96,92,30.44,30.30,5,3,8,0.00
2013-1-21,33,31,27,32,30,26,98,97,93,30.31,30.16,7,1,7,0.00
2013-1-22,38,30,22,36,29,21,98,95,88,30.15,29.93,3,0,4,0.00
2013-1-23,40,37,33,38,35,32,97,93,90,30.18,29.89,13,4,15,0.13
2013-1-24,46,38,31,44,37,30,97,93,80,30.23,30.08,11,1,12,0.13
2013-1-25,58,46,34,48,42,32,96,88,68,30.11,29.96,12,3,15,0.02
2013-1-26,49,41,32,40,38,31,98,89,73,30.08,29.91,12,4,17,0.05
2013-1-27,41,40,38,39,38,36,94,92,88,30.14,30.03,14,5,16,0.12
2013-1-28,43,41,38,41,39,36,95,91,85,30.14,30.04,9,4,14,0.04
2013-1-29,50,46,43,46,43,40,93,88,82,30.43,30.14,12,3,14,0.01
2013-1-30,50,47,45,48,45,42,96,94,91,30.44,30.38,13,4,16,0.30
2013-1-31,50,47,41,45,44,39,97,92,83,30.45,30.35,11,3,14,0.02